C/2022 Q2 ( ATLAS )

Japanese version
Home page
Updated on October 14, 2023

---------------------------------------------------------------------

* Profile

Discovery Date August 27, 2022
Magnitude 19.0 mag
Discoverer Asteroid Terrestrial-Impact Last Alert System (ATLAS) search program

* Pictures

* Orbital Elements

Epoch 2023 Feb. 25.0 TT = JDT 2460000.5
T 2023 Jan. 31.59204 TT                                 Rudenko
q   1.6441549            (2000.0)            P               Q
n   0.00527234     Peri.   44.06153     +0.63807656     -0.76773613
a  32.6939155      Node   352.94313     -0.76945490     -0.63300137
e   0.9497107      Incl.  151.48595     +0.02823929     +0.09945098
P 187
>From 571 observations 2022 Aug. 27-2023 May 28, mean residual 0".5.

* Magnitudes Graph

        m1 = 13.0 + 5 log d + 14.0 log r(t + 70)

        * Gray curve is:  m1 = 13.0 + 5 log d + 10.0 log r

---------------------------------------------------------------------

The orbital elements are published on M.P.E.C. 2023-L37.
The magnitudes graphs are made with Comet for Windows.

---------------------------------------------------------------------

Copyright(C) Seiichi Yoshida (comet@aerith.net). All rights reserved.